TimeCDT,TemperatureF,Dew PointF,Humidity,Sea Level PressureIn,VisibilityMPH,Wind Direction,Wind SpeedMPH,Gust SpeedMPH,PrecipitationIn,Events,Conditions,WindDirDegrees,DateUTC
12:15 AM,50.0,50.0,100,29.92,2.0,West,5.8,-,N/A,,Unknown,280,2013-03-31 05:15:00
12:35 AM,50.0,50.0,100,29.92,2.0,WNW,4.6,-,N/A,,Unknown,300,2013-03-31 05:35:00
12:55 AM,50.0,50.0,100,29.92,1.2,WNW,4.6,-,N/A,,Unknown,290,2013-03-31 05:55:00
1:15 AM,50.0,50.0,100,29.92,1.0,WNW,4.6,-,N/A,,Overcast,290,2013-03-31 06:15:00
1:35 AM,50.0,50.0,100,29.92,0.5,West,3.5,-,N/A,,Overcast,260,2013-03-31 06:35:00
1:55 AM,50.0,50.0,100,29.91,1.0,West,4.6,-,N/A,,Overcast,280,2013-03-31 06:55:00
2:15 AM,50.0,50.0,100,29.91,2.5,West,6.9,-,N/A,,Overcast,280,2013-03-31 07:15:00
2:35 AM,50.0,50.0,100,29.90,3.0,WNW,8.1,-,N/A,,Overcast,290,2013-03-31 07:35:00
2:55 AM,50.0,50.0,100,29.90,2.5,West,3.5,-,N/A,,Overcast,280,2013-03-31 07:55:00
3:15 AM,50.0,50.0,100,29.89,2.0,WNW,6.9,-,N/A,,Overcast,290,2013-03-31 08:15:00
3:35 AM,50.0,50.0,100,29.88,3.0,WNW,4.6,-,N/A,,Overcast,290,2013-03-31 08:35:00
3:55 AM,50.0,50.0,100,29.88,5.0,WNW,5.8,-,N/A,,Overcast,300,2013-03-31 08:55:00
4:15 AM,50.0,50.0,100,29.88,5.0,NW,3.5,-,N/A,,Overcast,310,2013-03-31 09:15:00
4:35 AM,50.0,50.0,100,29.88,5.0,Calm,Calm,-,N/A,,Overcast,0,2013-03-31 09:35:00
4:55 AM,50.0,50.0,100,29.88,3.0,SW,3.5,-,N/A,,Overcast,220,2013-03-31 09:55:00
5:15 AM,50.0,50.0,100,29.88,3.0,SW,4.6,-,N/A,,Overcast,220,2013-03-31 10:15:00
5:35 AM,50.0,50.0,100,29.88,3.0,WSW,4.6,-,N/A,,Overcast,240,2013-03-31 10:35:00
5:55 AM,50.0,50.0,100,29.89,3.0,SW,5.8,-,N/A,,Overcast,230,2013-03-31 10:55:00
6:15 AM,50.0,50.0,100,29.89,3.0,WSW,3.5,-,N/A,,Overcast,240,2013-03-31 11:15:00
6:35 AM,50.0,50.0,100,29.89,4.0,Calm,Calm,-,N/A,,Overcast,0,2013-03-31 11:35:00
6:55 AM,50.0,50.0,100,29.90,3.0,West,3.5,-,N/A,,Overcast,260,2013-03-31 11:55:00
7:15 AM,50.0,50.0,100,29.91,2.0,WSW,4.6,-,N/A,,Overcast,250,2013-03-31 12:15:00
7:35 AM,50.0,50.0,100,29.92,3.0,West,5.8,-,N/A,,Overcast,260,2013-03-31 12:35:00
7:55 AM,50.0,50.0,100,29.92,3.0,West,5.8,-,N/A,,Overcast,280,2013-03-31 12:55:00
8:15 AM,51.8,51.8,100,29.92,3.0,West,3.5,-,N/A,,Overcast,280,2013-03-31 13:15:00
8:35 AM,50.0,50.0,100,29.92,4.0,NW,8.1,-,N/A,,Overcast,320,2013-03-31 13:35:00
8:55 AM,50.0,50.0,100,29.93,3.0,NNW,8.1,-,N/A,,Overcast,330,2013-03-31 13:55:00
9:15 AM,51.8,51.8,100,29.94,6.0,NW,6.9,-,N/A,,Overcast,320,2013-03-31 14:15:00
9:35 AM,51.8,51.8,100,29.92,7.0,North,8.1,-,N/A,,Overcast,350,2013-03-31 14:35:00
9:55 AM,51.8,51.8,100,29.93,9.0,North,6.9,-,N/A,,Overcast,350,2013-03-31 14:55:00
10:15 AM,53.6,50.0,88,29.94,10.0,North,9.2,-,N/A,,Overcast,350,2013-03-31 15:15:00
10:35 AM,53.6,50.0,88,29.95,10.0,North,12.7,-,N/A,,Overcast,350,2013-03-31 15:35:00
10:55 AM,53.6,50.0,88,29.96,10.0,North,8.1,-,N/A,,Overcast,360,2013-03-31 15:55:00
11:15 AM,55.4,48.2,77,29.95,10.0,North,6.9,-,N/A,,Overcast,10,2013-03-31 16:15:00
11:35 AM,53.6,48.2,82,29.96,10.0,NNW,6.9,-,N/A,,Mostly Cloudy,330,2013-03-31 16:35:00
11:55 AM,53.6,48.2,82,29.95,10.0,NNW,5.8,-,N/A,,Mostly Cloudy,340,2013-03-31 16:55:00
12:15 PM,53.6,48.2,82,29.95,7.0,NNW,3.5,-,N/A,,Mostly Cloudy,340,2013-03-31 17:15:00
12:35 PM,53.6,48.2,82,29.92,8.0,South,4.6,-,0.01,,Partly Cloudy,180,2013-03-31 17:35:00
12:55 PM,53.6,50.0,88,29.90,10.0,SSE,5.8,-,0.02,,Clear,160,2013-03-31 17:55:00
1:15 PM,55.4,50.0,82,29.90,10.0,SE,5.8,-,N/A,,Clear,140,2013-03-31 18:15:00
1:35 PM,55.4,48.2,77,29.91,10.0,South,3.5,-,N/A,,Mostly Cloudy,170,2013-03-31 18:35:00
1:55 PM,57.2,50.0,77,29.90,10.0,SW,4.6,-,N/A,,Scattered Clouds,220,2013-03-31 18:55:00
2:15 PM,57.2,50.0,77,29.90,10.0,SE,3.5,-,N/A,,Clear,130,2013-03-31 19:15:00
2:35 PM,59.0,50.0,72,29.90,10.0,West,5.8,-,N/A,,Scattered Clouds,260,2013-03-31 19:35:00
2:55 PM,57.2,48.2,72,29.90,10.0,Calm,Calm,-,N/A,,Scattered Clouds,0,2013-03-31 19:55:00
3:15 PM,59.0,46.4,63,29.90,10.0,WSW,3.5,-,N/A,,Clear,240,2013-03-31 20:15:00
3:35 PM,59.0,48.2,67,29.90,10.0,WSW,3.5,-,N/A,,Clear,250,2013-03-31 20:35:00
3:55 PM,59.0,48.2,67,29.90,10.0,WSW,5.8,-,N/A,,Clear,240,2013-03-31 20:55:00
4:15 PM,59.0,46.4,63,29.90,10.0,West,6.9,-,N/A,,Clear,270,2013-03-31 21:15:00
4:35 PM,59.0,46.4,63,29.89,10.0,WSW,5.8,-,N/A,,Clear,250,2013-03-31 21:35:00
4:55 PM,60.8,46.4,59,29.89,10.0,West,8.1,-,N/A,,Clear,280,2013-03-31 21:55:00
5:15 PM,60.8,48.2,63,29.89,10.0,West,5.8,-,N/A,,Clear,270,2013-03-31 22:15:00
5:35 PM,60.8,46.4,59,29.89,10.0,West,5.8,-,N/A,,Clear,280,2013-03-31 22:35:00
5:55 PM,60.8,44.6,55,29.89,10.0,WNW,4.6,-,N/A,,Partly Cloudy,300,2013-03-31 22:55:00
6:15 PM,60.8,46.4,59,29.90,10.0,West,5.8,-,N/A,,Clear,270,2013-03-31 23:15:00
6:35 PM,59.0,44.6,59,29.89,10.0,West,3.5,-,N/A,,Clear,280,2013-03-31 23:35:00
7:15 PM,57.2,44.6,63,29.88,10.0,SW,4.6,-,N/A,,Clear,230,2013-04-01 00:15:00
7:35 PM,53.6,44.6,72,29.88,10.0,SSW,3.5,-,N/A,,Clear,210,2013-04-01 00:35:00
8:15 PM,50.0,44.6,82,29.90,10.0,South,3.5,-,N/A,,Clear,190,2013-04-01 01:15:00
8:35 PM,48.2,44.6,87,29.90,10.0,South,5.8,-,N/A,,Clear,190,2013-04-01 01:35:00
8:55 PM,50.0,44.6,82,29.91,10.0,SSW,3.5,-,N/A,,Clear,200,2013-04-01 01:55:00
9:15 PM,50.0,44.6,82,29.91,10.0,SSW,4.6,-,N/A,,Clear,210,2013-04-01 02:15:00
9:35 PM,50.0,44.6,82,29.91,10.0,SW,4.6,-,N/A,,Clear,230,2013-04-01 02:35:00
9:55 PM,50.0,44.6,82,29.92,10.0,WSW,5.8,-,N/A,,Clear,240,2013-04-01 02:55:00
10:15 PM,50.0,44.6,82,29.92,10.0,WSW,6.9,-,N/A,,Clear,240,2013-04-01 03:15:00
10:35 PM,50.0,44.6,82,29.92,10.0,WSW,6.9,-,N/A,,Clear,240,2013-04-01 03:35:00
10:55 PM,50.0,44.6,82,29.92,10.0,SW,6.9,-,N/A,,Clear,230,2013-04-01 03:55:00
11:15 PM,50.0,44.6,82,29.91,10.0,SW,6.9,-,N/A,,Clear,230,2013-04-01 04:15:00
11:35 PM,50.0,44.6,82,29.91,10.0,SW,6.9,-,N/A,,Clear,230,2013-04-01 04:35:00
11:55 PM,50.0,44.6,82,29.91,10.0,SW,6.9,-,N/A,,Clear,230,2013-04-01 04:55:00